Mount Shasta, CA

4:20 PM PDT on July 25, 2017 (GMT -0700)
Mount Shasta

Weather History for KMHS - October, 2014

Change the Weather History Date:

Tuesday, October 21, 2014

  Actual Average Record
Temperature  
Mean Temperature 45 °F 49 °F  
Max Temperature 56 °F 64 °F 82 °F (2003)
Min Temperature 34 °F 35 °F 21 °F (1996)
Degree Days  
Heating Degree Days 20 16  
Month to date heating degree days 170 251  
Since 1 July heating degree days 250 488  
Cooling Degree Days 0 0  
Month to date cooling degree days 0 0  
Year to date cooling degree days 547 287  
Moisture  
Dew Point 37 °F    
Average Humidity 82    
Maximum Humidity 100    
Minimum Humidity 59    
Precipitation  
Precipitation 0.00 in 0.08 in 1.89 in (1982)
Month to date precipitation 1.51 1.17  
Year to date precipitation 16.35 29.17  
Sea Level Pressure  
Sea Level Pressure 30.13 in    
Wind  
Wind Speed 0 mph (ENE)    
Max Wind Speed 5 mph    
Max Gust Speed 9 mph    
Visibility 10 miles    
Events      
T = Trace of Precipitation, MM = Missing Value Source: NWS Daily Summary

Daily Weather History Graph

Daily Weather History Graph

Search for Another Location

Airport or City:

Trip Planner

Search our weather history database for the weather conditions in past years. The results will help you decide how hot, cold, wet, or windy it might be!

Date:

Astronomy

Oct. 21, 2014 Rise Set
Actual Time 7:27 AM PDT 6:19 PM PDT
Civil Twilight 6:59 AM PDT 6:47 PM PDT
Nautical Twilight 6:27 AM PDT 7:19 PM PDT
Astronomical Twilight 5:55 AM PDT 7:51 PM PDT
Moon 5:15 AM PDT (10/21) 5:17 PM PDT (10/21)
Length of Visible Light 11h 47m
Length of Day
10h 51m
Waning Crescent, 4% of the Moon is Illuminated
Oct 21
Waning Crescent
Oct 23
New
Oct 30
First Quarter
Nov 6
Full
Nov 14
Last Quarter

Hourly Weather History & Observations

Time (PDT) Temp. Windchill Dew Point Humidity Pressure Visibility Wind Dir Wind Speed Gust Speed Precip Events Conditions
12:56 AM 36.0 °F - 34.0 °F 93% 30.06 in 10.0 mi Calm Calm - N/A   Clear
1:56 AM 35.1 °F - 33.1 °F 92% 30.08 in 10.0 mi Calm Calm - N/A   Partly Cloudy
2:56 AM 35.1 °F - 33.1 °F 92% 30.11 in 10.0 mi Calm Calm - N/A   Mostly Cloudy
3:53 AM 33.8 °F - 32.0 °F 93% 30.06 in 10.0 mi Calm Calm - N/A   Partly Cloudy
3:56 AM 34.0 °F - 32.0 °F 92% 30.12 in 10.0 mi Calm Calm - N/A   Scattered Clouds
4:06 AM 35.1 °F - 33.1 °F 92% 30.06 in 10.0 mi Calm Calm - N/A   Mostly Cloudy
4:21 AM 36.0 °F - 34.0 °F 93% 30.07 in 10.0 mi Calm Calm - N/A   Overcast
4:56 AM 37.0 °F - 36.0 °F 96% 30.13 in 10.0 mi Calm Calm - N/A   Overcast
5:09 AM 37.9 °F - 36.0 °F 93% 30.08 in 10.0 mi Calm Calm - N/A   Overcast
5:56 AM 37.0 °F 34.5 °F 35.1 °F 93% 30.15 in 10.0 mi ENE 3.5 mph - N/A   Overcast
6:11 AM 37.0 °F 34.5 °F 35.1 °F 93% 30.09 in 10.0 mi ENE 3.5 mph - N/A   Overcast
6:56 AM 37.0 °F - 36.0 °F 96% 30.18 in 10.0 mi Calm Calm - N/A   Overcast
7:56 AM 37.9 °F - 37.0 °F 97% 30.18 in 10.0 mi Calm Calm - N/A   Overcast
8:51 AM 42.8 °F - 39.2 °F 87% 30.13 in 10.0 mi Calm Calm - N/A   Mostly Cloudy
8:56 AM 42.1 °F - 39.9 °F 92% 30.20 in 10.0 mi Calm Calm - N/A   Overcast
9:56 AM 45.0 °F - 39.9 °F 82% 30.20 in 10.0 mi Calm Calm - N/A   Partly Cloudy
10:56 AM 46.9 °F - 39.9 °F 77% 30.19 in 10.0 mi Calm Calm - N/A   Clear
11:56 AM 48.9 °F - 39.9 °F 71% 30.19 in 10.0 mi Variable 3.5 mph - N/A   Clear
12:25 PM 51.1 °F - 39.9 °F 66% 30.13 in 10.0 mi Calm Calm - N/A   Mostly Cloudy
12:56 PM 51.1 °F - 39.9 °F 66% 30.18 in 10.0 mi Calm Calm - N/A   Mostly Cloudy
1:15 PM 53.1 °F - 39.9 °F 61% 30.11 in 10.0 mi Calm Calm - N/A   Scattered Clouds
1:56 PM 53.1 °F - 39.0 °F 59% 30.16 in 10.0 mi Calm Calm - N/A   Clear
2:56 PM 54.0 °F - 39.9 °F 59% 30.14 in 10.0 mi Calm Calm - N/A   Clear
3:56 PM 55.0 °F - 41.0 °F 59% 30.13 in 10.0 mi Calm Calm - N/A   Clear
4:56 PM 53.1 °F - 39.9 °F 61% 30.12 in 10.0 mi Calm Calm - N/A   Clear
5:56 PM 51.1 °F - 41.0 °F 68% 30.12 in 10.0 mi Calm Calm - N/A   Clear
6:56 PM 46.0 °F - 41.0 °F 83% 30.13 in 10.0 mi Calm Calm - N/A   Clear
7:56 PM 43.0 °F - 37.9 °F 82% 30.14 in 10.0 mi Calm Calm - N/A   Clear
8:56 PM 42.1 °F - 37.0 °F 82% 30.13 in 10.0 mi Calm Calm - N/A   Mostly Cloudy
9:56 PM 42.1 °F 40.2 °F 37.9 °F 85% 30.14 in 10.0 mi ENE 3.5 mph - N/A   Overcast
10:56 PM 42.1 °F - 37.9 °F 85% 30.13 in 9.0 mi Calm Calm - N/A   Mostly Cloudy
11:56 PM 42.1 °F - 37.9 °F 85% 30.12 in 10.0 mi Calm Calm - N/A   Clear